Address 0x2ee05fad3b206a232e985acbda949b215c67f00e 1

 
Ad
Ad
Txn Hash Method
Block
From
To
Value [Txn Fee]
0xaf4d3a88f8b3e9bbd5e6d06c0fd4dfa12bd26d2ceba5fbbb57379f98622a5291Transfer217785602021-11-25 9:05:5010 days 10 hrs ago0x2ee05fad3b206a232e985acbda949b215c67f00eOUT QuickSwap: QUICK Token0 MATIC0.00172302
0xf3ddc419ba33098beb86a8c5ba3aa64ac40054f85dc57d0c3376e78c49df6f99Transfer217453372021-11-24 12:38:2011 days 6 hrs ago0x2ee05fad3b206a232e985acbda949b215c67f00eOUT QuickSwap: dQUICK Token0 MATIC0.00138076
0xf16072e9544fe51fb5f8bb8436613045dd93430843730722b1a2eeafbe7565f2Transfer217453022021-11-24 12:37:1011 days 6 hrs ago0x2ee05fad3b206a232e985acbda949b215c67f00eOUT Polygon: WMATIC Token0 MATIC0.00206556
0xabd7d934991d1471584f2b1872a6f89012204d019b906726ad5e0ab806765dc6Transfer217452672021-11-24 12:35:5611 days 6 hrs ago0x2ee05fad3b206a232e985acbda949b215c67f00eOUT Genesis: GENESIS Token0 MATIC0.00206812
0x18571bc95ce7c2d00f1d9b288b1c7ab30af3042eca17abf9a9a060ab79cbd59dTransfer217452392021-11-24 12:35:0011 days 6 hrs ago0x2ee05fad3b206a232e985acbda949b215c67f00eOUT QuickSwap: dQUICK Token0 MATIC0.00138076
0x3f3db1dc5b197002f730e2f99ae29215cca3f81ba44c27966cea3ea0f68e8837Transfer217452182021-11-24 12:34:1811 days 6 hrs ago0x2ee05fad3b206a232e985acbda949b215c67f00eOUT 0xb382c1cfa622795a534e5bd56fac93d59bac8b0d0 MATIC0.0022928
0x85b918d70807cbcccb5fb8ee2f02cdcccd7d62c0ad696950dd979ed725e1911aEnter217442542021-11-24 11:50:2011 days 7 hrs ago0x2ee05fad3b206a232e985acbda949b215c67f00eOUT QuickSwap: dQUICK Token0 MATIC0.002046594
0x3af89920f359a2dc0c26fdad72e64b3a021cbaff150132183024a74fded880f6Enter217431762021-11-24 11:02:4411 days 8 hrs ago0x2ee05fad3b206a232e985acbda949b215c67f00eOUT QuickSwap: dQUICK Token0 MATIC0.00186054
0x43b421a58243f26c6b1ca5926752e821b4f3b605d644f1d36f39ff7fbba851a8Enter217430372021-11-24 10:57:5411 days 8 hrs ago0x2ee05fad3b206a232e985acbda949b215c67f00eOUT QuickSwap: dQUICK Token0 MATIC0.00186054
0x9c0aed343ce360b924beb677e1377843bcf956c83d6ee09638421435ec3ae36dTransfer215479602021-11-19 8:59:1816 days 10 hrs ago0x2ee05fad3b206a232e985acbda949b215c67f00eOUT QuickSwap: QUICK Token0 MATIC0.0020161
0x92723d8a4a6497b74836711c435221884ce4469d9b579449c5ef990cc8ea5fefTransfer From Wi...213926852021-11-15 8:39:0020 days 10 hrs ago0x2ee05fad3b206a232e985acbda949b215c67f00eOUT 0x0dfbee143b42b41efc5a6f87bfd1ffc78c2f0ac90 MATIC0.0035838
0xa52c551b972b97677f0874e226d97d8ca512ea5f3163bce6feec21fe9005949bApprove213926622021-11-15 8:38:1420 days 10 hrs ago0x2ee05fad3b206a232e985acbda949b215c67f00eOUT 0xc2132d05d31c914a87c6611c10748aeb04b58e8f0 MATIC0.0026036
0xbb3225ef638a31ccc0e3b0df55f3a888149c061a006c8485651a58172b72e5f7Approve212813032021-11-12 11:47:5023 days 7 hrs ago0x2ee05fad3b206a232e985acbda949b215c67f00eOUT 0xc2132d05d31c914a87c6611c10748aeb04b58e8f0 MATIC0.00156216
0xfab068dd90caf78c0ebfb2c34d40b3827dcdd7f3d624ad166c50e59eed635061Swap Tokens For ...212812712021-11-12 11:46:4223 days 7 hrs ago0x2ee05fad3b206a232e985acbda949b215c67f00eOUT QuickSwap: Router0 MATIC0.00334461
0x1240b7e45c4aa7bf741233487957743cb6e705f0346c4e5d41e9cc37c107afc5Swap Tokens For ...212812492021-11-12 11:45:5823 days 7 hrs ago0x2ee05fad3b206a232e985acbda949b215c67f00eOUT QuickSwap: Router0 MATIC0.00522297
0xf39e78bf73267f8c638f81e30a2313e0e580d55ced6013a7fc0faf688491bb84Transfer212758622021-11-12 8:21:1223 days 11 hrs ago0x2ee05fad3b206a232e985acbda949b215c67f00eOUT QuickSwap: QUICK Token0 MATIC0.00172266
0x72330ae98a1685237eccc50a87ca27182ff6631844a6aae178f4cf1a489245a3Transfer212164592021-11-10 17:34:4825 days 1 hr ago0x2ee05fad3b206a232e985acbda949b215c67f00eOUT QuickSwap: QUICK Token0 MATIC0.00172302
0x6e840b0ea153533c58f81db9196a6bf4c58485ed0aad09298f08ea7dd23921c9Transfer212159802021-11-10 17:18:1825 days 2 hrs ago0x2ee05fad3b206a232e985acbda949b215c67f00eOUT Polygon: WMATIC Token0 MATIC0.00154953
0x6db37a3a86b58d30e34403f780bb92398607058e44cdf6ff35dae06ccb898fa8Transfer212159442021-11-10 17:17:0625 days 2 hrs ago0x2ee05fad3b206a232e985acbda949b215c67f00eOUT Genesis: GENESIS Token0 MATIC0.00155109
0xddb0e6d022a6b81702efff55da039ea136b284195c8922b2e8eced307ed70fdcTransfer212158692021-11-10 17:14:2825 days 2 hrs ago0x2ee05fad3b206a232e985acbda949b215c67f00eOUT QuickSwap: dQUICK Token0 MATIC0.00103629
0x6d0f2afe6275e9cfe9d6124b363721c5e39a59cb82b2eac4126920c71016da37Transfer212158062021-11-10 17:12:1425 days 2 hrs ago0x2ee05fad3b206a232e985acbda949b215c67f00eOUT QuickSwap: dQUICK Token0 MATIC0.00172715
0x278be680f189d8f7fce808a756e3387dda9be4eb7e6336f918cd3dae8fefa756Enter212067372021-11-10 11:29:0225 days 8 hrs ago0x2ee05fad3b206a232e985acbda949b215c67f00eOUT QuickSwap: dQUICK Token0 MATIC0.00186054
0xf9adae243e6eb4a0faa73635ff118cbb2a8cc0df27375233e9670e3bb5b16315Enter212059122021-11-10 11:00:4025 days 8 hrs ago0x2ee05fad3b206a232e985acbda949b215c67f00eOUT QuickSwap: dQUICK Token0 MATIC0.00237354
0x07fd8af15b549793412afbe94fc1e2a451a09baa81a215b117c7b837ab3832e5Transfer210561652021-11-06 16:03:5029 days 3 hrs ago0x2ee05fad3b206a232e985acbda949b215c67f00eOUT QuickSwap: QUICK Token0 MATIC0.00161288
0xb88d199bd3a956357cb7a1f8bcc5f7819287d04e9a2cae613b030eecdafdb37dTransfer208655462021-11-01 17:23:0934 days 2 hrs ago0x2ee05fad3b206a232e985acbda949b215c67f00eOUT QuickSwap: QUICK Token0 MATIC0.00172266
[ Download CSV Export 
Parent Txn Hash Block From To Value
Loading

Contract Name:
0 MATIC

Compiler Version
0

Optimization Enabled:
0 MATIC

Other Settings:
-NA-
Block Transaction Gas Used Reward
Age Block Fee Address BC Fee Address Voting Power Jailed Incoming
Block Uncle Number Difficulty Gas Used Reward
Loading
Loading
Make sure to use the "Vote Down" button for any spammy posts, and the "Vote Up" for interesting conversations.